Regional Weather Roundup
Issued by NWS

Home | Current Version | Previous Version | Text Only | Print | Product List | Glossary On
Versions: 1 2 3 4 5 6 7 8 9 10 11 12 13 14 15 16 17 18 19 20 21 22 23 24 25 26 27 28 29 30 31 32 33 34 35 36 37 38 39 40 41 42 43 44 45 46 47 48 49 50
000
ASUS44 KFWD 220403
RWRTX
NORTH TEXAS HOURLY WEATHER ROUNDUP
NATIONAL WEATHER SERVICE FORT WORTH TX
1100 PM CDT THU AUG 21 2014

NOTE: "FAIR" INDICATES FEW OR NO CLOUDS BELOW 12,000 FEET WITH NO
SIGNIFICANT WEATHER AND/OR OBSTRUCTIONS TO VISIBILITY.

TXZ118-119-220500-
DALLAS/FORT WORTH METROPLEX

CITY           SKY/WX    TMP DP  RH WIND       PRES   REMARKS
DFW AIRPORT    CLEAR     90  65  43 S15G25    29.96S HX  92
DALLAS LOVE    CLEAR     90  66  45 S20G25    29.97S HX  92
FTW MEACHAM    CLEAR     90  63  40 SE15      29.96R HX  91
DAL-EXECUTIVE  CLEAR     90  65  43 S13G23    29.98S HX  92
FTW-ALLIANCE   CLEAR     88  62  41 S12       29.96R
FTW-NAS-JRB    CLEAR     93  59  31 SE15      30.00R HX  92
FTW-SPINKS     CLEAR     85  63  47 SE8       29.98S
ARLINGTON      CLEAR     88  65  46 SE12      29.97S HX  90
GRAND PRAIRIE  CLEAR     89  64  42 SE13G18   29.99R HX  90
ADDISON        CLEAR     90  64  41 S15G25    29.99S HX  91
MESQUITE       PTCLDY    86  65  49 SE8       29.99R
LANCASTER      CLEAR     87  64  46 S10       29.99S
$$

TXZ091>094-102>105-117-120-121-131>134-220500-
NORTH CENTRAL TEXAS

CITY           SKY/WX    TMP DP  RH WIND       PRES   REMARKS
SHRMAN/DENISON CLEAR     87  66  49 SE16      29.99S
GAINESVILLE    CLEAR     81  65  57 SE8       29.99S
BOWIE          CLEAR     82  62  50 SE5       29.97S
BRIDGEPORT     CLEAR     87  55  32 SE8       29.98R
DECATUR        CLEAR     86  59  39 SE8       29.98S
DENTON         CLEAR     89  64  43 S15       29.96R HX  90
MCKINNEY       CLEAR     85  68  56 SE7       29.99R
GREENVILLE     CLEAR     84  66  54 SE13      30.00S
ROCKWALL       CLEAR     86  68  55 SE9       29.98R
TERRELL        CLEAR     87  66  49 SE12      30.00R
WAXAHACHIE     CLEAR     85  64  48 SE9       30.00S
CLEBURNE       CLEAR     86  64  48 SE10      30.00R
GRANBURY       CLEAR     89  58  35 SE8       29.98R
$$

TXZ083>090-098>101-113>116-127>130-139>142-154-155-220500-
WESTERN NORTH TEXAS

CITY           SKY/WX    TMP DP  RH WIND       PRES   REMARKS
WICHITA FALLS  CLEAR     87  60  40 S10       29.93R
VERNON         CLEAR     92  58  31 S13       29.93S HX  91
ABILENE        CLEAR     87  63  44 S12       30.01R
ABILENE-DYESS  CLEAR     86  65  49 S14       30.00R
BRECKENRIDGE   CLEAR     89  56  32 S8        29.97R
GRAHAM         CLEAR     89  57  33 S6        29.95R
MINERAL WELLS  CLEAR     86  59  39 S7        29.95R
STEPHENVILLE   CLEAR     85  57  37 S5        30.02S
COMANCHE       CLEAR     86  58  38 S7        30.00S
BROWNWOOD      PTCLDY    84  59  42 SE6       30.00S
COLEMAN        CLEAR     79  65  61 S5        30.01S
BRADY          CLEAR     82  61  47 SE7       30.02S
$$

TXZ143>147-156>162-174-175-220500-
CENTRAL TEXAS

CITY           SKY/WX    TMP DP  RH WIND       PRES   REMARKS
WACO           CLEAR     88  67  49 S17       30.00R HX  91
WACO-TSTC      CLEAR     90  66  45 S20       30.00R HX  92
WACO-MCGREGOR  CLEAR     88  63  42 S16       30.01R
HILLSBORO      CLEAR     88  64  44 SE15G23   29.99S
CORSICANA      CLEAR     87  67  51 S12       30.02R HX  90
MEXIA          CLEAR     85  69  57 S10       30.02R
HEARNE           N/A     84  72  66 SE10      30.04R HX  90
CAMERON        CLEAR     86  73  64 S17G24    30.03R HX  92
TEMPLE         CLEAR     88  64  45 SE22G28   30.01R
KILLEEN        CLEAR     88  70  55 SE24G30   30.01R HX  92
KILLEEN-SKYLRK CLEAR     88  66  48 SE15G29   30.02R HX  90
FORT HOOD      CLEAR     88  68  51 SE15G23   30.01R HX  91
GATESVILLE     CLEAR     88  64  45 S12       30.02S
HAMILTON       CLEAR     87  60  40 SE16G22   30.02R
LAMPASAS       CLEAR     88  72  57 S20G25    30.01S HX  94
$$

TXZ095>097-106>112-122>126-135>138-148>153-164>167-220500-
EAST TEXAS

CITY           SKY/WX    TMP DP  RH WIND       PRES   REMARKS
PARIS          CLEAR     82  66  57 S9        30.02S
SULPHUR SPRNGS CLEAR     86  69  56 S12       30.03S HX  90
CLARKSVILLE    PTCLDY    82  69  64 SE6       30.02S
MOUNT PLEASANT CLEAR     81  69  67 SE6       30.04S
GILMER         PTCLDY    84  72  65 S7        30.05S
MINEOLA        CLEAR     86  72  62 S7        30.02F HX  92
TYLER          CLEAR     85  72  65 S13       30.03S HX  91
LONGVIEW       PTCLDY    84  70  62 S10       30.04R
MARSHALL       MOCLDY    82  76  81 S5        30.06S HX  90
ATHENS         CLEAR     82  72  69 S8        30.02S
PALESTINE      CLEAR     84  74  72 SE7       30.05R HX  92
JACKSONVILLE   CLEAR     83  73  71 S10G18    30.08S
HENDERSON      PTCLDY    83  71  68 S8        30.07R
NACOGDOCHES    PTCLDY    81  73  78 S8        30.07S
LUFKIN         PTCLDY    83  74  74 S6        30.07R
$$

SUPPLEMENTAL OBSERVATIONS (CENTRAL)

CITY           SKY/WX    TMP DP  RH WIND       PRES   REMARKS
$$

SUPPLEMENTAL OBSERVATIONS (WEST)

CITY           SKY/WX    TMP DP  RH WIND       PRES   REMARKS
$$

SUPPLEMENTAL OBSERVATIONS (EAST)

CITY           SKY/WX    TMP DP  RH WIND       PRES   REMARKS
$$

SUPPLEMENTAL OBSERVATIONS ARE A COLLECTION OF AUTOMATED INSTRUMENTS
THAT ARE MAINTAINED BY A VARIETY OF FEDERAL AND STATE AGENCIES.
CERTAIN ELEMENTS...SUCH AS HUMIDITY VALUES AND SUSTAINED WIND
SPEEDS...MAY BE APPROXIMATED.



USA.gov is the U.S. government's official web portal to all federal, state and local government web resources and services.